[[{"header":{"parameterUnit":"m.s-1","parameterCategory":1,"la1":30.2991,"la2":30.254,"lo1":-89.0895,"lo2":-89.0444,"dy":0.0017,"dx":0.0017,"nx":28,"ny":28,"refTime":"2024-06-02T09:00:00:Z","depth":0,"parameterNumber":2,"parameterNumberName":"U-component_of_WINDS"},"data":[0,0,0,0,0,0,0,0,0,0,0,0,0,0,0,0,0,0,0,0,0,0,0,0,0,0,0,0,0,0,0,0,0,0,0,0,0,0,0,0,0,0,0,0,0,0,0,0,0,0,0,0,0,0,0,0,0,0,-1.5436,-1.5435,0,-1.5383,-1.5383,-1.5382,-1.5337,-1.5337,-1.5336,-1.5336,-1.5278,-1.5277,-1.5276,0,0,0,0,0,0,0,0,0,0,0,0,0,-1.5492,-1.5491,-1.5436,-1.5435,-1.5434,-1.5383,-1.5383,-1.5382,-1.5338,-1.5337,-1.5336,-1.5336,-1.5278,-1.5277,-1.5276,0,0,0,0,0,0,0,0,0,0,0,0,0,-1.5457,-1.5491,-1.5436,-1.5406,-1.5403,-1.5384,-1.5383,-1.5382,-1.5338,-1.5337,-1.5336,-1.5336,-1.5279,-1.5277,-1.5275,-1.528,0,0,-1.527,-1.527,0,0,0,0,0,0,0,0,-1.5459,-1.5454,-1.5411,-1.5408,-1.5405,-1.5366,-1.5381,-1.5347,-1.5338,-1.5362,-1.5336,-1.5335,-1.5307,-1.5303,-1.5295,-1.5277,-1.5274,-1.527,-1.5269,-1.5268,-1.5268,0,0,0,0,0,0,0,-1.5461,-1.5456,-1.5415,-1.541,-1.5406,-1.5394,-1.5388,-1.5375,-1.5339,-1.536,-1.5357,-1.5351,-1.5305,-1.5297,-1.5293,-1.5274,-1.527,-1.5269,-1.5268,-1.5267,-1.5255,-1.5256,0,0,0,0,0,0,-1.5469,-1.5459,-1.5416,-1.5413,-1.543,-1.5394,-1.5387,-1.5379,-1.534,-1.5333,-1.5352,-1.535,-1.53,-1.5295,-1.5291,-1.5293,-1.5268,-1.5267,-1.5266,-1.5255,-1.5255,-1.5256,0,0,0,0,0,0,-1.547,-1.5465,-1.5418,-1.5435,-1.5428,-1.5393,-1.5385,-1.5379,-1.537,-1.5334,-1.5327,-1.535,-1.5299,-1.5293,-1.5283,-1.529,-1.5266,-1.5265,-1.5254,-1.5255,-1.5256,-1.5297,0,0,0,0,0,0,-1.5472,-1.5466,-1.5469,-1.5436,-1.5428,-1.5413,-1.5385,-1.5378,-1.5368,-1.5364,-1.533,-1.5323,-1.5298,-1.5286,-1.5281,-1.5288,-1.5263,-1.5253,-1.5254,-1.5255,-1.5295,-1.5299,-1.5303,0,0,0,0,0,-1.5474,-1.5481,-1.5469,-1.5464,-1.543,-1.5413,-1.5409,-1.5381,-1.5369,-1.537,-1.5346,-1.5324,-1.5291,-1.5285,-1.528,-1.5286,-1.5252,-1.5254,-1.5255,-1.5293,-1.5299,-1.5303,0,0,0,0,0,0,-1.5515,-1.5477,-1.5462,-1.5459,-1.544,-1.5406,-1.5407,-1.5388,-1.537,-1.5367,-1.5332,-1.5325,-1.5318,-1.5301,-1.5295,-1.5287,-1.5268,-1.5269,-1.5299,-1.5304,-1.5308,-1.5312,-1.5262,0,0,0,0,0,-1.5524,-1.5515,-1.5481,-1.5482,-1.5473,-1.5442,-1.5434,-1.5414,-1.5392,-1.5383,-1.5359,-1.5337,-1.5321,-1.5312,-1.5295,-1.5292,-1.5283,-1.5294,-1.5298,-1.5302,-1.5302,-1.5298,-1.5302,-1.5261,-1.5261,-1.5261,0,0,-1.5541,-1.5519,-1.5516,-1.5489,-1.5472,-1.5462,-1.5435,-1.5426,-1.5418,-1.5381,-1.537,-1.5352,-1.5325,-1.5318,-1.5314,-1.5303,-1.5311,-1.5303,-1.5307,-1.5305,-1.53,-1.5304,-1.5307,-1.5262,-1.5262,-1.5262,0,0,-1.5568,-1.5551,-1.555,-1.5533,-1.5508,-1.5487,-1.5487,-1.5456,-1.5443,-1.5432,-1.5404,-1.5393,-1.5367,-1.5348,-1.5336,-1.5356,-1.5335,-1.5352,-1.5373,-1.537,-1.5373,-1.5376,-1.5382,-1.5385,-1.5353,-1.5353,-1.5353,0,-1.5593,-1.5578,-1.5551,-1.5544,-1.5532,-1.5501,-1.5498,-1.5483,-1.5453,-1.5445,-1.5434,-1.5401,-1.5381,-1.5369,-1.5374,-1.5365,-1.5362,-1.5355,-1.5375,-1.5377,-1.5379,-1.5385,-1.5387,-1.5355,-1.5355,-1.5354,-1.5354,0,-1.5609,-1.56,-1.5601,-1.5575,-1.5564,-1.5559,-1.5529,-1.5521,-1.5503,-1.5483,-1.5471,-1.5446,-1.5423,-1.5419,-1.54,-1.5404,-1.5398,-1.5382,-1.5362,-1.5386,-1.539,-1.5392,-1.5358,-1.5357,-1.5357,-1.5356,0,0,-1.5659,-1.5619,-1.562,-1.5607,-1.5577,-1.5568,-1.5561,-1.5541,-1.5534,-1.5515,-1.5507,-1.5486,-1.5471,-1.5456,-1.5435,-1.5433,-1.5449,-1.5416,-1.5415,-1.5422,-1.545,-1.5463,-1.5466,-1.5435,-1.5436,-1.5436,-1.5452,0,-1.5681,-1.5668,-1.5643,-1.5638,-1.5628,-1.5598,-1.5591,-1.5571,-1.5553,-1.554,-1.5518,-1.5504,-1.5485,-1.5476,-1.5472,-1.5448,-1.5454,-1.5447,-1.5426,-1.5425,-1.5433,-1.5468,-1.5481,-1.5498,-1.5454,-1.5454,-1.5455,0,-1.5704,-1.5688,-1.5682,-1.5653,-1.5647,-1.5642,-1.5622,-1.5611,-1.5587,-1.5573,-1.5558,-1.5535,-1.5524,-1.5507,-1.5491,-1.5487,-1.5476,-1.5463,-1.5463,-1.5459,-1.5441,-1.5464,-1.5502,-1.5505,-1.5457,-1.5457,-1.5457,0,-1.574,-1.5717,-1.571,-1.57,-1.5666,-1.5663,-1.5648,-1.5624,-1.5614,-1.5595,-1.5587,-1.5567,-1.5556,-1.554,-1.5512,-1.5502,-1.5498,-1.5479,-1.5485,-1.5486,-1.5484,-1.5485,-1.5521,-1.548,-1.548,-1.548,-1.548,0,-1.5766,-1.5763,-1.5726,-1.5722,-1.5717,-1.5688,-1.5684,-1.5666,-1.5645,-1.5636,-1.5608,-1.5599,-1.5563,-1.555,-1.5527,-1.5517,-1.5512,-1.5499,-1.5493,-1.5501,-1.5503,-1.5493,-1.5491,-1.5481,-1.548,-1.548,-1.548,0,-1.5805,-1.578,-1.5771,-1.574,-1.5732,-1.573,-1.5702,-1.5696,-1.5676,-1.5664,-1.566,-1.5627,-1.561,-1.5581,-1.5555,-1.554,-1.5533,-1.5523,-1.5541,-1.5537,-1.5545,-1.5544,-1.5575,-1.5577,-1.5536,-1.5537,-1.5537,0,-1.5822,-1.582,-1.5789,-1.5782,-1.5768,-1.5757,-1.5746,-1.5717,-1.5707,-1.568,-1.5677,-1.5658,-1.5641,-1.5615,-1.5587,-1.5567,-1.5556,-1.5568,-1.5552,-1.556,-1.5555,-1.5555,-1.5554,-1.5571,-1.5572,-1.5573,-1.5573,0,-1.5856,-1.5844,-1.5831,-1.5813,-1.5802,-1.5786,-1.5769,-1.5764,-1.573,-1.572,-1.5703,-1.569,-1.5664,-1.5645,-1.5621,-1.5604,-1.5582,-1.5578,-1.5578,-1.5586,-1.5596,-1.559,-1.555,-1.5577,-1.5577,-1.5577,-1.5576,-1.5576,-1.5884,-1.588,-1.5858,-1.5844,-1.5828,-1.5813,-1.5806,-1.5785,-1.5771,-1.5749,-1.5732,-1.5716,-1.5692,-1.5657,-1.5641,-1.5627,-1.5617,-1.5618,-1.5618,-1.5618,-1.5621,-1.56,-1.5623,-1.5622,-1.5622,-1.5622,-1.5622,0,-1.5915,-1.59,-1.5887,-1.5865,-1.5853,-1.5836,-1.5816,-1.5807,-1.5794,-1.5774,-1.5759,-1.5739,-1.572,-1.5692,-1.5671,-1.5665,-1.5654,-1.566,-1.5659,-1.5656,-1.5631,-1.5633,-1.5669,-1.5669,-1.5669,-1.5669,-1.5669,-1.5669,-1.593,-1.5922,-1.5908,-1.5892,-1.5876,-1.5861,-1.5851,-1.5836,-1.582,-1.58,-1.5785,-1.5768,-1.5744,-1.572,-1.5702,-1.5694,-1.5687,-1.5696,-1.5684,-1.5662,-1.5657,-1.5653,-1.5655,-1.5695,-1.5695,-1.571,-1.571,-1.571]},{"header":{"parameterUnit":"m.s-1","parameterCategory":1,"la1":30.2991,"la2":30.254,"lo1":-89.0895,"lo2":-89.0444,"dy":0.0017,"dx":0.0017,"nx":28,"ny":28,"refTime":"2024-06-02T09:00:00:Z","depth":0,"parameterNumber":3,"parameterNumberName":"V-component_of_WINDS"},"data":[0,0,0,0,0,0,0,0,0,0,0,0,0,0,0,0,0,0,0,0,0,0,0,0,0,0,0,0,0,0,0,0,0,0,0,0,0,0,0,0,0,0,0,0,0,0,0,0,0,0,0,0,0,0,0,0,0,0,0.2898,0.29,0,0.3062,0.3064,0.3066,0.3054,0.3052,0.3049,0.3047,0.3215,0.3222,0.3229,0,0,0,0,0,0,0,0,0,0,0,0,0,0.2575,0.2581,0.2898,0.29,0.2902,0.3062,0.3064,0.3066,0.3055,0.3052,0.3049,0.3046,0.3213,0.3221,0.3229,0,0,0,0,0,0,0,0,0,0,0,0,0,0.2725,0.2583,0.2897,0.2915,0.2918,0.3061,0.3064,0.3067,0.3055,0.3051,0.3048,0.3044,0.321,0.322,0.323,0.3366,0,0,0.3261,0.3266,0,0,0,0,0,0,0,0,0.2716,0.2737,0.291,0.2914,0.2918,0.3034,0.3012,0.3167,0.3056,0.3003,0.3047,0.3043,0.3158,0.3172,0.3211,0.3374,0.3381,0.3262,0.3268,0.3273,0.3275,0,0,0,0,0,0,0,0.2706,0.2729,0.2963,0.2913,0.2918,0.2915,0.2933,0.3041,0.3099,0.3008,0.3007,0.3027,0.3159,0.3201,0.3215,0.3384,0.3262,0.3271,0.3277,0.3281,0.3668,0.3672,0,0,0,0,0,0,0.2691,0.2721,0.2957,0.2968,0.2806,0.2924,0.2943,0.3,0.3098,0.3109,0.303,0.3026,0.3186,0.3203,0.3221,0.3387,0.3273,0.3282,0.3288,0.3663,0.3669,0.3673,0,0,0,0,0,0,0.2684,0.2713,0.2951,0.2844,0.2874,0.2934,0.2998,0.3006,0.3047,0.3115,0.3125,0.3062,0.3183,0.3206,0.333,0.3393,0.3287,0.3296,0.3659,0.3665,0.3671,0.372,0,0,0,0,0,0,0.2675,0.271,0.2762,0.2845,0.288,0.3057,0.3001,0.3011,0.3065,0.3061,0.3147,0.3158,0.3182,0.3315,0.334,0.3405,0.3304,0.3653,0.3661,0.3669,0.3713,0.3727,0.3739,0,0,0,0,0,0.2664,0.2769,0.2765,0.2793,0.2946,0.3061,0.3081,0.3106,0.307,0.3123,0.3166,0.3156,0.3382,0.3328,0.3356,0.3425,0.3649,0.3659,0.3668,0.3707,0.3725,0.3739,0,0,0,0,0,0,0.2691,0.278,0.2776,0.2912,0.2979,0.3059,0.3126,0.3124,0.3203,0.3196,0.3224,0.3244,0.3369,0.3409,0.3347,0.3562,0.3511,0.3526,0.3531,0.3548,0.3561,0.3549,0.3312,0,0,0,0,0,0.2713,0.2798,0.2872,0.2984,0.3018,0.3067,0.3117,0.3132,0.3202,0.3231,0.3283,0.3352,0.3439,0.3496,0.3579,0.3719,0.3738,0.378,0.3793,0.3803,0.3817,0.3895,0.3915,0.3704,0.3704,0.3704,0,0,0.2758,0.2818,0.287,0.2991,0.3045,0.3134,0.309,0.3186,0.3252,0.3245,0.3366,0.3407,0.3486,0.3619,0.368,0.3656,0.3879,0.3816,0.3823,0.3831,0.3907,0.3927,0.3944,0.371,0.3709,0.3708,0,0,0.2887,0.294,0.304,0.3095,0.3178,0.3209,0.3233,0.3315,0.3342,0.3463,0.346,0.3539,0.3688,0.3745,0.3793,0.3946,0.3939,0.3972,0.4041,0.4117,0.4133,0.4148,0.4204,0.4223,0.3985,0.3985,0.3985,0,0.2933,0.3067,0.3092,0.3189,0.3243,0.3241,0.3343,0.3395,0.35,0.3538,0.351,0.3697,0.375,0.3897,0.3935,0.3974,0.4003,0.3962,0.4129,0.4144,0.4158,0.4211,0.4232,0.3988,0.3988,0.3988,0.3987,0,0.312,0.3213,0.3284,0.3386,0.3448,0.3547,0.3588,0.3648,0.3657,0.3692,0.3816,0.388,0.3977,0.4013,0.4022,0.4162,0.4144,0.4122,0.4072,0.4181,0.4232,0.4252,0.3994,0.3992,0.3991,0.399,0,0,0.327,0.3386,0.3412,0.3459,0.355,0.3623,0.3722,0.3817,0.3868,0.3941,0.4026,0.4152,0.4133,0.4188,0.4204,0.4271,0.4389,0.4241,0.4243,0.4267,0.4548,0.4564,0.4587,0.4385,0.4389,0.4392,0.4541,0,0.3409,0.3585,0.3611,0.3766,0.3853,0.3854,0.394,0.4006,0.4042,0.412,0.416,0.4249,0.4216,0.425,0.4316,0.436,0.4445,0.435,0.4464,0.4468,0.4445,0.4613,0.4631,0.4769,0.4561,0.4564,0.4567,0,0.3594,0.3672,0.3837,0.3918,0.3955,0.4032,0.4123,0.4198,0.4273,0.4294,0.4357,0.4365,0.4468,0.4413,0.4557,0.4492,0.454,0.4569,0.4575,0.4587,0.4524,0.4631,0.4813,0.4834,0.4598,0.4595,0.4593,0,0.3688,0.3835,0.3952,0.3992,0.409,0.4144,0.4187,0.4259,0.4315,0.4394,0.4431,0.452,0.457,0.4639,0.4672,0.4629,0.4814,0.4761,0.4836,0.4835,0.4875,0.4872,0.5069,0.4905,0.4905,0.4904,0.4904,0,0.384,0.3941,0.3996,0.4068,0.4182,0.4211,0.4323,0.4364,0.4428,0.4509,0.4515,0.459,0.4629,0.471,0.4737,0.4852,0.4874,0.4895,0.4901,0.4895,0.4893,0.4928,0.4919,0.491,0.4909,0.4907,0.4907,0,0.3964,0.4005,0.4133,0.4215,0.4238,0.4318,0.4389,0.446,0.4495,0.4597,0.4623,0.4679,0.4776,0.4815,0.4934,0.4951,0.5085,0.5083,0.506,0.5062,0.5134,0.5127,0.5361,0.5393,0.5207,0.5209,0.521,0,0.4058,0.4136,0.4227,0.4282,0.4327,0.4415,0.4473,0.4505,0.4565,0.4657,0.4717,0.4814,0.4893,0.5048,0.51,0.519,0.5191,0.5267,0.5205,0.5197,0.5194,0.5189,0.5198,0.5278,0.528,0.5282,0.5283,0,0.4223,0.424,0.4323,0.4414,0.4483,0.4555,0.4627,0.4671,0.4715,0.4782,0.4882,0.4943,0.5065,0.5161,0.5255,0.53,0.53,0.5302,0.5324,0.532,0.5303,0.5314,0.5092,0.5297,0.5295,0.5294,0.5294,0.5293,0.4336,0.4405,0.4481,0.4574,0.4631,0.4698,0.4769,0.4814,0.4897,0.4999,0.5013,0.512,0.5194,0.5321,0.5369,0.5454,0.5434,0.5466,0.5474,0.5482,0.5487,0.5289,0.5471,0.547,0.547,0.547,0.547,0,0.4501,0.455,0.4635,0.4735,0.4808,0.4802,0.4881,0.4943,0.5037,0.5106,0.5184,0.5299,0.5393,0.5453,0.5548,0.5604,0.5606,0.5628,0.5624,0.5635,0.5499,0.5471,0.5624,0.5624,0.5624,0.5624,0.5624,0.5624,0.4596,0.4714,0.474,0.4887,0.4935,0.504,0.5086,0.5148,0.5204,0.5332,0.5411,0.5449,0.5515,0.5615,0.5701,0.5716,0.5751,0.5775,0.5788,0.566,0.5644,0.5629,0.5603,0.5782,0.5782,0.5918,0.5919,0.592]}]]